Tracking 30107 objects as of 18-Jan-2025
HD Live streaming from Space Station
objects crossing your sky now

SL-14 R/B

Track SL-14 R/B now!
10-day predictions


NORAD ID: 12786
Int'l Code: 1981-082B
Perigee: 603.1 km
Apogee: 628.8 km
Inclination: 82.5 °
Period: 96.9 minutes
Semi major axis: 6986 km
RCS: 3.6609 m2 (large)
Launch date: August 24, 1981
Source: Commonwealth of Independent States (former USSR) (CIS)
Launch site: PLESETSK MISSILE AND SPACE COMPLEX (PKMTR)

Note: This is a ROCKET BODY
Your satellite tracking list
Your tracking list is empty




NASA's NSSDC Master Catalog

Two Line Element Set (TLE):
1 12786U 81082B   25017.84987629  .00000812  00000-0  88709-4 0  9998
2 12786  82.4859 233.9235 0018373  99.6851 260.6442 14.86528011325076
Source of the keplerian elements: AFSPC